FW9909 Weather Reports


Display with metric or nautical units.
time (UTC)temp
F
wind
direction
speed
MPH
gust
MPH
rain 1hr
in
rain 24hr
in
rain mn
in
humidity
%
barometer
mb
20260831131530 76 250 2.0 6.0 0.00 0.00 0.00 66 1018.4
20260831130528 76 227 2.0 5.0 0.00 0.00 0.00 67 1018.3
20260831125526 74 18 3.0 6.0 0.00 0.00 0.00 69 1018.1
20260831124524 73 122 1.0 4.0 0.00 0.00 0.00 71 1018.0
20260831123523 71 118 2.0 4.0 0.00 0.00 0.00 74 1017.9
20260831122521 71 130 2.0 6.0 0.00 0.00 0.00 74 1017.8
20260831121519 70 77 1.0 3.0 0.00 0.00 0.00 75 1017.6
20260831120517 71 99 2.0 5.0 0.00 0.00 0.00 74 1017.5
20260831115535 70 86 1.0 3.0 0.00 0.00 0.00 74 1017.4
20260831114533 70 148 2.0 5.0 0.00 0.00 0.00 74 1017.2
20260831113531 71 68 1.0 4.0 0.00 0.00 0.00 74 1017.1
20260831112529 71 35 3.0 6.0 0.00 0.00 0.00 74 1017.0
20260831111527 71 75 2.0 5.0 0.00 0.00 0.00 73 1017.0
20260831110526 71 101 2.0 4.0 0.00 0.00 0.00 73 1016.8
20260831105524 71 100 1.0 5.0 0.00 0.00 0.00 72 1016.7
20260831104542 71 33 3.0 7.0 0.00 0.00 0.00 72 1016.7
20260831103520 72 106 3.0 5.0 0.00 0.00 0.00 71 1016.8
20260831102518 72 89 2.0 6.0 0.00 0.00 0.00 71 1016.7
20260831101516 72 88 2.0 4.0 0.00 0.00 0.00 71 1016.7
20260831100534 72 127 3.0 5.0 0.00 0.00 0.00 71 1016.7
20260831095532 72 106 3.0 5.0 0.00 0.00 0.00 71 1016.7
20260831094551 72 34 2.0 4.0 0.00 0.00 0.00 71 1016.7
20260831093529 72 31 3.0 5.0 0.00 0.00 0.00 70 1016.7
20260831092527 73 75 2.0 3.0 0.00 0.00 0.00 70 1016.7
20260831091526 73 79 1.0 3.0 0.00 0.00 0.00 70 1016.7
20260831090543 73 76 1.0 3.0 0.00 0.00 0.00 70 1016.7
20260831085521 73 24 1.0 2.0 0.00 0.00 0.00 70 1016.6
20260831084519 73 105 1.0 3.0 0.00 0.00 0.00 71 1016.6
20260831083518 73 85 1.0 3.0 0.00 0.00 0.00 70 1016.5
20260831082515 73 86 1.0 2.0 0.00 0.00 0.00 70 1016.5
20260831081534 73 90 1.0 2.0 0.00 0.00 0.00 70 1016.4
20260831080532 73 53 1.0 2.0 0.00 0.00 0.00 70 1016.3
20260831075530 73 97 1.0 3.0 0.00 0.00 0.00 69 1016.3
20260831074528 74 35 0.0 2.0 0.00 0.00 0.00 69 1016.3
20260831073526 74 54 1.0 3.0 0.00 0.00 0.00 69 1016.4
20260831072545 74 126 1.0 3.0 0.00 0.00 0.00 68 1016.3
20260831071522 74 250 1.0 4.0 0.00 0.00 0.00 68 1016.4
20260831070521 75 110 1.0 4.0 0.00 0.00 0.00 67 1016.5
20260831065519 75 72 1.0 4.0 0.00 0.00 0.00 67 1016.5
20260831064537 75 65 1.0 3.0 0.00 0.00 0.00 67 1016.5
20260831063535 75 84 0.0 2.0 0.00 0.00 0.00 66 1016.5
20260831062533 76 85 1.0 3.0 0.00 0.00 0.00 65 1016.5
20260831061531 77 101 2.0 4.0 0.00 0.00 0.00 63 1016.6
20260831060530 77 120 1.0 5.0 0.00 0.00 0.00 62 1016.7
20260831055528 77 129 1.0 5.0 0.00 0.00 0.00 62 1016.5
20260831054526 77 132 2.0 4.0 0.00 0.00 0.00 62 1016.6
20260831053524 77 152 1.0 2.0 0.00 0.00 0.00 63 1016.5
20260831052542 77 326 1.0 2.0 0.00 0.00 0.00 63 1016.6
20260831051520 78 302 0.0 2.0 0.00 0.00 0.00 62 1016.5
20260831050518 78 124 0.0 2.0 0.00 0.00 0.00 61 1016.5
20260831045516 79 215 1.0 3.0 0.00 0.00 0.00 60 1016.3
20260831044534 79 251 1.0 2.0 0.00 0.00 0.00 60 1016.1
20260831043552 79 175 1.0 3.0 0.00 0.00 0.00 60 1016.0
20260831042530 80 251 1.0 2.0 0.00 0.00 0.00 59 1015.8
20260831041529 80 263 2.0 4.0 0.00 0.00 0.00 58 1015.9
20260831040527 81 261 2.0 4.0 0.00 0.00 0.00 57 1015.8
20260831035525 81 238 2.0 7.0 0.00 0.00 0.00 57 1015.8
20260831034523 82 271 2.0 5.0 0.00 0.00 0.00 57 1015.8
20260831033541 82 115 1.0 4.0 0.00 0.00 0.00 56 1015.7
20260831032519 83 268 2.0 7.0 0.00 0.00 0.00 55 1015.6
20260831031618 83 228 2.0 5.0 0.00 0.00 0.00 54 1015.7
20260831030516 83 263 2.0 4.0 0.00 0.00 0.00 53 1015.8
20260831025534 84 219 3.0 5.0 0.00 0.00 0.00 53 1015.7
20260831024532 84 254 3.0 6.0 0.00 0.00 0.00 52 1015.7
20260831023530 84 251 3.0 6.0 0.00 0.00 0.00 52 1015.6
20260831022528 85 239 3.0 6.0 0.00 0.00 0.00 51 1015.5
20260831021526 85 250 3.0 8.0 0.00 0.00 0.00 50 1015.3
20260831020524 85 201 3.0 7.0 0.00 0.00 0.00 49 1015.2
20260831015523 85 257 2.0 7.0 0.00 0.00 0.00 50 1015.1
20260831014521 85 266 2.0 4.0 0.00 0.00 0.00 49 1015.0
20260831013559 85 199 1.0 3.0 0.00 0.00 0.00 48 1014.8
20260831012517 86 81 1.0 4.0 0.00 0.00 0.00 48 1014.7
20260831011535 86 305 1.0 2.0 0.00 0.00 0.00 46 1014.6
20260831010533 87 144 1.0 3.0 0.00 0.00 0.00 45 1014.5
20260831005531 88 311 1.0 3.0 0.00 0.00 0.00 44 1014.4
20260831004529 88 267 1.0 3.0 0.00 0.00 0.00 45 1014.4
20260831003527 88 214 2.0 4.0 0.00 0.00 0.00 44 1014.5
20260831002526 89 278 1.0 4.0 0.00 0.00 0.00 45 1014.5
20260831001544 89 289 1.0 3.0 0.00 0.00 0.00 45 1014.5
20260831000522 90 314 1.0 2.0 0.00 0.00 0.00 44 1014.7
20260830235520 91 298 1.0 2.0 0.00 0.00 0.00 43 1014.7
20260830234518 91 294 1.0 2.0 0.00 0.00 0.00 42 1014.7
20260830233516 92 289 1.0 3.0 0.00 0.00 0.00 41 1014.7
20260830232534 93 257 0.0 3.0 0.00 0.00 0.00 39 1014.7
20260830231533 94 92 1.0 3.0 0.00 0.00 0.00 37 1014.5
20260830230531 94 251 2.0 3.0 0.00 0.00 0.00 37 1014.6
20260830225529 95 247 2.0 5.0 0.00 0.00 0.00 36 1014.6
20260830224527 95 282 2.0 6.0 0.00 0.00 0.00 37 1014.4
20260830223525 95 250 1.0 6.0 0.00 0.00 0.00 36 1014.7
20260830222523 95 279 1.0 4.0 0.00 0.00 0.00 36 1014.6
20260830221521 96 225 2.0 5.0 0.00 0.00 0.00 36 1014.7
20260830220519 96 226 1.0 4.0 0.00 0.00 0.00 35 1014.7
20260830215518 97 251 3.0 5.0 0.00 0.00 0.00 35 1014.7
20260830214516 97 275 3.0 9.0 0.00 0.00 0.00 33 1014.7
20260830213534 99 163 3.0 9.0 0.00 0.00 0.00 32 1014.8
20260830212532 99 283 3.0 4.0 0.00 0.00 0.00 33 1015.0
20260830211530 99 268 2.0 4.0 0.00 0.00 0.00 31 1014.9
20260830210528 99 254 4.0 7.0 0.00 0.00 0.00 31 1015.1
20260830205527 101 260 5.0 8.0 0.00 0.00 0.00 30 1015.2
20260830204524 102 257 4.0 8.0 0.00 0.00 0.00 30 1015.2
20260830203523 99 262 3.0 7.0 0.00 0.00 0.00 32 1015.4
20260830202621 100 263 4.0 6.0 0.00 0.00 0.00 33 1015.3
20260830201519 101 251 5.0 10.0 0.00 0.00 0.00 31 1015.4
20260830200537 100 252 4.0 8.0 0.00 0.00 0.00 33 1015.5
20260830195515 100 253 5.0 8.0 0.00 0.00 0.00 34 1015.6
20260830194533 101 262 4.0 6.0 0.00 0.00 0.00 33 1015.6
20260830193531 99 272 3.0 6.0 0.00 0.00 0.00 35 1015.8
20260830192530 99 262 4.0 8.0 0.00 0.00 0.00 35 1016.0
20260830191528 98 258 5.0 9.0 0.00 0.00 0.00 35 1015.9
20260830190526 98 210 2.0 4.0 0.00 0.00 0.00 35 1016.1
20260830185604 98 264 4.0 9.0 0.00 0.00 0.00 36 1016.2
20260830184522 98 258 3.0 9.0 0.00 0.00 0.00 36 1016.3
20260830183520 97 249 5.0 9.0 0.00 0.00 0.00 36 1016.5
20260830182518 96 225 4.0 10.0 0.00 0.00 0.00 37 1016.6
20260830181516 96 264 5.0 11.0 0.00 0.00 0.00 38 1016.7
20260830180534 96 259 5.0 7.0 0.00 0.00 0.00 37 1017.0
20260830175533 95 263 4.0 10.0 0.00 0.00 0.00 38 1017.1
20260830174531 94 255 5.0 9.0 0.00 0.00 0.00 38 1017.2
20260830173529 93 254 5.0 11.0 0.00 0.00 0.00 39 1017.3
20260830172527 91 244 6.0 11.0 0.00 0.00 0.00 40 1017.4
20260830171545 92 252 6.0 12.0 0.00 0.00 0.00 40 1017.5
20260830170523 91 253 5.0 10.0 0.00 0.00 0.00 42 1017.6
20260830165542 90 257 4.0 7.0 0.00 0.00 0.00 44 1017.8
20260830164519 89 271 5.0 10.0 0.00 0.00 0.00 45 1017.8
20260830163518 87 253 4.0 7.0 0.00 0.00 0.00 46 1017.8
20260830162516 88 245 4.0 12.0 0.00 0.00 0.00 46 1017.8
20260830161534 88 247 4.0 10.0 0.00 0.00 0.00 46 1018.0
20260830160532 88 259 5.0 9.0 0.00 0.00 0.00 46 1018.0
20260830155530 88 259 6.0 13.0 0.00 0.00 0.00 45 1017.8
20260830154528 86 260 4.0 8.0 0.00 0.00 0.00 48 1017.8
20260830153527 86 267 5.0 8.0 0.00 0.00 0.00 49 1017.8
20260830152525 85 239 4.0 7.0 0.00 0.00 0.00 50 1017.6
20260830151523 83 252 3.0 7.0 0.00 0.00 0.00 52 1017.7
20260830150521 83 245 5.0 9.0 0.00 0.00 0.00 52 1017.7
20260830145519 83 253 4.0 9.0 0.00 0.00 0.00 52 1017.7
20260830144517 82 244 4.0 10.0 0.00 0.00 0.00 53 1017.7
20260830143535 81 251 3.0 8.0 0.00 0.00 0.00 54 1017.6
20260830142533 80 222 3.0 7.0 0.00 0.00 0.00 54 1017.6
20260830141552 80 251 3.0 6.0 0.00 0.00 0.00 55 1017.6
20260830140530 79 208 2.0 4.0 0.00 0.00 0.00 56 1017.8
20260830135527 78 178 2.0 4.0 0.00 0.00 0.00 58 1017.7
20260830134526 77 253 3.0 6.0 0.00 0.00 0.00 59 1017.6
20260830133524 76 203 3.0 6.0 0.00 0.00 0.00 60 1017.8
20260830132522 75 358 2.0 6.0 0.00 0.00 0.00 61 1017.8